Location: St. Louis
(38.6270°N, 90.1994°W)
Time: 08:35:02
(UTC-05:00)

Hubble Space Telescope - Visible Passes

Search period start: 03 October 2024 00:00
Search period end: 13 October 2024 00:00
Orbit: 504 x 508 km, 28.5° (Epoch: 02 October)

Date Brightness Start Highest point End Pass type
(mag) Time Alt. Az. Time Alt. Az. Time Alt. Az.
03 Oct 2.5 05:31:31 17° SSW 05:32:00 17° S 05:34:39 10° SE visible
04 Oct 2.8 05:11:40 16° S 05:11:40 16° S 05:13:23 10° SE visible
05 Oct 3.4 04:51:49 11° SSE 04:51:49 11° SSE 04:52:04 10° SSE visible
